This demonstration page uses our WeatherBlox Daily Observations layout. Learn more.

Left ArrowRight Arrow

39.29038, -76.61219

Hourly Observations for May 20, 2017

Temp ( °F °C ) Dew Point ( °F °C ) Humidity (%) Winds ( mph kmh ) Pressure ( in mb ) Visibility ( mi km ) Precip ( " mm )
12:54 am 00:54 undefined 70 21.1 68 20 93 93 undefined N/A 29.99 1016 N/A N/A
1:54 am 01:54 undefined 71 21.7 68 20 90 90 undefined N/A 29.99 1016 N/A N/A
2:54 am 02:54 undefined 72 22.2 68 20 87 87 undefined N/A 30.01 1016 N/A N/A
3:54 am 03:54 undefined 71 21.7 67 19.4 87 87 undefined N/A 30.02 1017 N/A N/A
4:54 am 04:54 undefined 71 21.7 62 16.7 73 73 undefined N/A 30.05 1018 N/A N/A
5:54 am 05:54 undefined 70 21.1 59 15 68 68 undefined N/A 30.09 1019 N/A N/A
6:54 am 06:54 undefined 69 20.6 55 12.8 61 61 undefined N/A 30.13 1020 N/A N/A
7:54 am 07:54 undefined 69 20.6 55 12.8 61 61 undefined N/A 30.15 1021 N/A N/A
8:54 am 08:54 undefined 70 21.1 55 12.8 59 59 undefined N/A 30.17 1022 N/A N/A
9:54 am 09:54 undefined 69 20.6 56 13.3 63 63 undefined N/A 30.19 1022 N/A N/A
10:54 am 10:54 undefined 68 20 56 13.3 65 65 undefined N/A 30.22 1023 N/A N/A
11:54 am 11:54 undefined 68 20 56 13.3 65 65 undefined N/A 30.23 1024 N/A N/A
12:54 pm 12:54 undefined 67 19.4 56 13.3 68 68 undefined N/A 30.25 1025 N/A N/A
1:54 pm 13:54 undefined 67 19.4 54 12.2 63 63 undefined N/A 30.26 1025 N/A N/A
2:54 pm 14:54 undefined 67 19.4 54 12.2 63 63 undefined N/A 30.26 1025 N/A N/A
3:54 pm 15:54 undefined 68 20 54 12.2 61 61 undefined N/A 30.26 1025 N/A N/A
4:54 pm 16:54 undefined 68 20 54 12.2 61 61 undefined N/A 30.26 1025 N/A N/A
5:54 pm 17:54 undefined 68 20 53 11.7 59 59 undefined N/A 30.25 1025 N/A N/A
6:54 pm 18:54 undefined 67 19.4 52 11.1 59 59 undefined N/A 30.27 1025 N/A N/A
7:54 pm 19:54 undefined 66 18.9 49 9.4 54 54 undefined N/A 30.29 1026 N/A N/A
8:54 pm 20:54 undefined 65 18.3 47 8.3 52 52 undefined N/A 30.30 1026 N/A N/A
9:54 pm 21:54 undefined 64 17.8 50 10 60 60 undefined N/A 30.32 1027 N/A N/A
10:54 pm 22:54 undefined 62 16.7 48 8.9 60 60 undefined N/A 30.32 1027 N/A N/A
11:54 pm 23:54 undefined 62 16.7 47 8.3 58 58 undefined N/A 30.31 1026 N/A N/A

Powered by AerisWeather